FW1970 Weather Reports


time (UTC)temp
C
wind
direction
speed
KPH
gust
KPH
rain 1hr
cm
rain 24hr
cm
rain mn
cm
humidity
%
barometer
mb
20260510000049 17 163 11.3 25.7 0.00 0.30 0.18 44 1006.1
20260509234548 18 214 12.9 25.7 0.00 0.30 0.18 44 1005.9
20260509233051 18 198 3.2 20.9 0.00 0.30 0.18 44 1005.8
20260509231557 18 262 17.7 29.0 0.00 0.30 0.18 43 1005.8
20260509230046 18 154 19.3 33.8 0.00 0.30 0.18 42 1005.8
20260509224545 18 198 14.5 29.0 0.00 0.30 0.18 42 1005.7
20260509223049 19 242 8.0 19.3 0.00 0.30 0.18 43 1005.5
20260509221545 18 229 17.7 35.4 0.00 0.30 0.18 41 1005.5
20260509220044 18 177 12.9 27.4 0.00 0.30 0.18 43 1005.9
20260509214540 18 229 16.1 29.0 0.00 0.30 0.18 42 1006.2
20260509213038 18 230 12.9 29.0 0.00 0.30 0.18 43 1006.1
20260509211535 18 250 14.5 33.8 0.00 0.30 0.18 43 1006.3
20260509210047 18 238 12.9 29.0 0.00 0.30 0.18 44 1006.5
20260509204531 18 199 12.9 25.7 0.00 0.30 0.18 46 1006.3
20260509203030 17 233 20.9 33.8 0.00 0.30 0.18 46 1006.6
20260509201528 17 208 9.7 22.5 0.00 0.30 0.18 49 1006.8
20260509200025 17 224 6.4 25.7 0.00 0.30 0.18 51 1006.9
20260509194525 17 232 12.9 27.4 0.00 0.33 0.18 50 1006.9
20260509193022 17 277 12.9 30.6 0.00 0.33 0.18 50 1007.1
20260509191519 16 261 14.5 33.8 0.00 0.33 0.18 51 1007.3
20260509190017 16 196 12.9 33.8 0.00 0.33 0.18 53 1007.4
20260509184517 16 192 14.5 24.1 0.00 0.33 0.18 55 1007.7
20260509183014 16 215 14.5 19.3 0.00 0.33 0.18 54 1007.8
20260509181511 15 226 11.3 24.1 0.00 0.33 0.18 56 1008.1
20260509180009 15 262 12.9 30.6 0.00 0.33 0.18 57 1008.2
20260509174509 14 239 14.5 29.0 0.00 0.33 0.18 58 1008.3
20260509173015 14 228 17.7 30.6 0.00 0.33 0.18 56 1008.0
20260509171512 14 221 17.7 32.2 0.00 0.33 0.18 57 1008.1
20260509170012 14 263 19.3 25.7 0.00 0.33 0.18 57 1007.9
20260509164607 14 224 12.9 27.4 0.00 0.33 0.18 58 1007.9
20260509163001 13 225 16.1 22.5 0.00 0.33 0.18 60 1007.9
20260509161559 13 251 11.3 25.7 0.00 0.33 0.18 60 1007.7
20260509160056 13 261 8.0 17.7 0.00 0.33 0.18 63 1008.0
20260509154552 13 211 8.0 19.3 0.00 0.33 0.18 67 1007.7
20260509153149 12 206 8.0 14.5 0.00 0.33 0.18 72 1007.6
20260509151557 11 179 3.2 16.1 0.00 0.33 0.18 81 1007.7
20260509150046 11 242 6.4 14.5 0.00 0.33 0.18 81 1007.7
20260509144540 11 212 3.2 14.5 0.00 0.33 0.18 81 1007.7
20260509143047 11 186 8.0 16.1 0.00 0.33 0.18 81 1008.0
20260509141537 11 220 6.4 12.9 0.00 0.33 0.18 81 1007.9
20260509140034 10 209 4.8 11.3 0.03 0.33 0.18 81 1007.9
20260509134536 10 206 3.2 16.1 0.03 0.33 0.18 81 1008.1
20260509133031 10 207 6.4 14.5 0.03 0.33 0.18 81 1008.0
20260509131539 10 215 4.8 12.9 0.05 0.33 0.18 81 1008.2
20260509130052 10 252 6.4 12.9 0.05 0.30 0.15 80 1008.3
20260509124532 10 259 8.0 16.1 0.05 0.30 0.15 79 1008.3
20260509123039 10 162 4.8 16.1 0.08 0.30 0.15 79 1008.4
20260509121525 10 226 4.8 16.1 0.05 0.28 0.13 79 1008.4
20260509120030 10 187 4.8 11.3 0.05 0.25 0.10 79 1008.3
20260509114522 10 203 3.2 8.0 0.08 0.25 0.10 79 1008.4
20260509113022 10 211 4.8 17.7 0.05 0.23 0.08 79 1008.3
20260509111519 10 269 6.4 14.5 0.05 0.23 0.08 78 1008.3
20260509110021 10 230 8.0 19.3 0.00 0.18 0.03 79 1008.2
20260509104516 10 230 4.8 12.9 0.00 0.18 0.03 80 1007.9
20260509103015 10 190 1.6 8.0 0.00 0.18 0.03 80 1007.9
20260509101522 10 205 3.2 12.9 0.00 0.18 0.03 80 1007.9
20260509100011 9 183 1.6 8.0 0.00 0.18 0.03 81 1008.1
20260509094513 9 151 1.6 9.7 0.03 0.18 0.03 81 1008.0
20260509093008 9 144 3.2 12.9 0.03 0.18 0.03 80 1008.2
20260509091506 9 130 3.2 11.3 0.03 0.18 0.03 80 1008.4
20260509090005 9 148 4.8 12.9 0.03 0.18 0.03 79 1008.5
20260509084503 8 123 1.6 6.4 0.00 0.15 0.00 79 1008.6
20260509083003 8 94 1.6 3.2 0.00 0.15 0.00 78 1008.6
20260509081505 8 94 0.0 1.6 0.00 0.15 0.00 78 1008.8
20260509080002 8 94 0.0 0.0 0.00 0.15 0.00 78 1008.6
20260509074600 8 94 0.0 3.2 0.00 0.15 0.00 77 1008.6
20260509073059 8 94 0.0 0.0 0.00 0.15 0.00 77 1008.8
20260509071658 8 94 1.6 4.8 0.00 0.15 0.00 76 1008.7
20260509070057 8 94 0.0 4.8 0.00 0.15 0.00 76 1008.8
20260509064600 8 94 1.6 4.8 0.00 0.15 0.00 76 1008.8
20260509063056 8 69 0.0 4.8 0.00 0.15 0.00 76 1008.7
20260509061605 8 74 1.6 8.0 0.00 0.15 0.00 75 1008.8
20260509060053 8 74 3.2 8.0 0.00 0.15 0.00 75 1009.2
20260509054608 8 83 1.6 8.0 0.00 0.15 0.00 75 1009.2
20260509053055 8 57 4.8 9.7 0.00 0.15 0.00 74 1009.5
20260509051548 8 63 3.2 6.4 0.00 0.15 0.00 74 1009.5
20260509050046 8 53 4.8 9.7 0.00 0.15 0.00 74 1009.4
20260509044543 8 55 1.6 8.0 0.00 0.15 0.00 74 1009.5
20260509043041 8 57 3.2 9.7 0.00 0.15 0.00 73 1009.9
20260509041540 9 54 3.2 8.0 0.00 0.15 0.00 73 1010.0
20260509040042 9 53 4.8 6.4 0.00 0.15 0.00 73 1010.4
20260509034538 9 53 3.2 8.0 0.03 0.15 0.15 72 1010.4
20260509033035 9 47 3.2 8.0 0.03 0.15 0.15 71 1010.7
20260509031534 9 48 0.0 6.4 0.08 0.15 0.15 70 1010.9
20260509030034 9 48 1.6 4.8 0.10 0.15 0.15 69 1011.2
20260509024531 9 48 1.6 4.8 0.10 0.13 0.13 68 1011.3
20260509023034 10 49 4.8 8.0 0.08 0.10 0.10 67 1011.5
20260509021530 10 34 1.6 4.8 0.05 0.08 0.08 66 1011.8
20260509020129 10 34 0.0 8.0 0.03 0.05 0.05 65 1011.3
20260509014537 10 346 3.2 6.4 0.00 0.03 0.03 65 1011.2
20260509013027 10 105 0.0 4.8 0.00 0.03 0.03 65 1010.8
20260509011526 10 107 3.2 11.3 0.00 0.03 0.03 64 1010.3
20260509010030 10 34 8.0 14.5 0.00 0.03 0.03 64 1009.9
20260509004524 10 76 4.8 8.0 0.00 0.03 0.03 64 1009.9
20260509003024 11 76 9.7 12.9 0.00 0.03 0.03 64 1009.8
20260509001528 11 80 1.6 4.8 0.00 0.03 0.03 63 1009.8